RYR7LC GCTS-LEVC

Flight info

Callsign RYR7LC
Flight time N/A
Altitude 36000
Route KORAL UN871 ESS UG5 ROMSO UM985 BARPA M985 PIMOS DCT MGA M985 ASTRO
Aircraft B738/M-SDE3FGILRWY/SB1

Departure

Time 2026-04-30 09:37
Airport Tenerife Sur Airport (GCTS)

Arrival

Time N/A
Airport Valencia Airport (LEVC)
Time Latitude Longitude Altitude Speed Heading
2026-04-30 09:17 28.04695 -16.57734 217 ft 0 kts 338°
2026-04-30 09:30 28.04683 -16.57729 217 ft 3 kts 336°
2026-04-30 09:30 28.04665 -16.57719 217 ft 3 kts 329°
2026-04-30 09:31 28.04649 -16.57706 217 ft 3 kts 314°
2026-04-30 09:31 28.04641 -16.57695 217 ft 3 kts 293°
2026-04-30 09:31 28.04638 -16.57679 217 ft 1 kts 251°
2026-04-30 09:31 28.04639 -16.57677 217 ft 0 kts 249°
2026-04-30 09:32 28.04638 -16.57678 217 ft 0 kts 249°
2026-04-30 09:33 28.04634 -16.57691 217 ft 7 kts 249°
2026-04-30 09:33 28.04613 -16.57750 217 ft 6 kts 243°
2026-04-30 09:33 28.04584 -16.57820 217 ft 17 kts 244°
2026-04-30 09:34 28.04525 -16.57983 217 ft 24 kts 249°
2026-04-30 09:34 28.04464 -16.58130 217 ft 16 kts 208°
2026-04-30 09:34 28.04353 -16.58116 217 ft 22 kts 203°
2026-04-30 09:34 28.04294 -16.58223 217 ft 16 kts 252°
2026-04-30 09:35 28.04252 -16.58356 217 ft 20 kts 249°
2026-04-30 09:35 28.04238 -16.58399 217 ft 22 kts 249°
2026-04-30 09:35 28.04181 -16.58569 217 ft 22 kts 249°
2026-04-30 09:35 28.04134 -16.58708 217 ft 16 kts 249°
2026-04-30 09:36 28.04059 -16.58793 217 ft 20 kts 165°
2026-04-30 09:36 28.03999 -16.58563 217 ft 58 kts 77°
2026-04-30 09:36 28.04209 -16.57933 217 ft 112 kts 67°
2026-04-30 09:36 28.04561 -16.56930 247 ft 154 kts 68°
2026-04-30 09:37 28.04991 -16.55811 705 ft 159 kts 66°
2026-04-30 09:37 28.05383 -16.54596 1234 ft 167 kts 68°
2026-04-30 09:37 28.05789 -16.53398 1908 ft 161 kts 67°
2026-04-30 09:37 28.06210 -16.52180 2294 ft 175 kts 68°
2026-04-30 09:38 28.06680 -16.50824 2579 ft 195 kts 68°
2026-04-30 09:38 28.07207 -16.49316 2839 ft 216 kts 67°
2026-04-30 09:38 28.07890 -16.47719 3091 ft 235 kts 63°
2026-04-30 09:38 28.08636 -16.46040 3570 ft 242 kts 63°
2026-04-30 09:39 28.09421 -16.44274 3991 ft 259 kts 63°
2026-04-30 09:39 28.10244 -16.42422 4619 ft 265 kts 63°
2026-04-30 09:39 28.11058 -16.40581 5954 ft 254 kts 63°
2026-04-30 09:39 28.11801 -16.38879 7767 ft 226 kts 63°
2026-04-30 09:40 28.12492 -16.37290 9049 ft 225 kts 63°
2026-04-30 09:40 28.13218 -16.35676 9889 ft 236 kts 62°
2026-04-30 09:40 28.13984 -16.33930 10442 ft 258 kts 63°
2026-04-30 09:40 28.14775 -16.32075 11292 ft 266 kts 63°
2026-04-30 09:41 28.15559 -16.30115 12009 ft 280 kts 65°
2026-04-30 09:41 28.16356 -16.28031 12652 ft 296 kts 64°
2026-04-30 09:41 28.17189 -16.25867 13495 ft 301 kts 64°
2026-04-30 09:41 28.18021 -16.23668 14341 ft 308 kts 65°
2026-04-30 09:42 28.18838 -16.21392 15171 ft 311 kts 65°
2026-04-30 09:42 28.19646 -16.19163 16274 ft 304 kts 63°
2026-04-30 09:42 28.20479 -16.16949 17000 ft 309 kts 63°
2026-04-30 09:42 28.21323 -16.14650 17549 ft 320 kts 63°
2026-04-30 09:43 28.22171 -16.12253 17992 ft 336 kts 64°
2026-04-30 09:43 28.23068 -16.09769 18550 ft 344 kts 62°
2026-04-30 09:43 28.24137 -16.07354 19241 ft 343 kts 55°
2026-04-30 09:43 28.25354 -16.05023 19886 ft 345 kts 52°
2026-04-30 09:44 28.26722 -16.02795 20524 ft 345 kts 48°
2026-04-30 09:44 28.28159 -16.00595 21137 ft 348 kts 47°
2026-04-30 09:44 28.29622 -15.98387 21749 ft 351 kts 46°
2026-04-30 09:44 28.31095 -15.96165 22337 ft 355 kts 46°
2026-04-30 09:45 28.32585 -15.93916 22934 ft 357 kts 46°
2026-04-30 09:45 28.34080 -15.91656 23489 ft 361 kts 46°
2026-04-30 09:45 28.35592 -15.89368 24062 ft 363 kts 46°
2026-04-30 09:45 28.37115 -15.87060 24610 ft 366 kts 46°
2026-04-30 09:46 28.38647 -15.84737 25153 ft 368 kts 46°
2026-04-30 09:46 28.40187 -15.82399 25680 ft 371 kts 45°
2026-04-30 09:46 28.41673 -15.80145 27067 ft 337 kts 45°
2026-04-30 09:46 28.43009 -15.78097 28391 ft 317 kts 43°
2026-04-30 09:47 28.44351 -15.76053 28592 ft 330 kts 43°
2026-04-30 09:47 28.45755 -15.73921 28726 ft 343 kts 43°
2026-04-30 09:47 28.47219 -15.71706 28860 ft 355 kts 43°
2026-04-30 09:47 28.48660 -15.69530 29202 ft 359 kts 43°
2026-04-30 09:48 28.50161 -15.67259 29686 ft 359 kts 43°
2026-04-30 09:48 28.51025 -15.65951 30037 ft 356 kts 43°
2026-04-30 09:48 28.52488 -15.63732 30661 ft 350 kts 43°
2026-04-30 09:48 28.53964 -15.61492 31108 ft 351 kts 42°
2026-04-30 09:49 28.55445 -15.59243 31283 ft 360 kts 42°
2026-04-30 09:49 28.56970 -15.56924 31404 ft 370 kts 43°
2026-04-30 09:49 28.58533 -15.54548 31524 ft 380 kts 43°
2026-04-30 09:49 28.60139 -15.52102 31630 ft 391 kts 43°
2026-04-30 09:50 28.61782 -15.49597 31810 ft 398 kts 43°
2026-04-30 09:50 28.63440 -15.47068 32170 ft 400 kts 43°
2026-04-30 09:50 28.65105 -15.44527 32526 ft 401 kts 43°
2026-04-30 09:50 28.66778 -15.41970 32861 ft 404 kts 43°
2026-04-30 09:51 28.68457 -15.39404 33230 ft 404 kts 43°
2026-04-30 09:51 28.70141 -15.36827 33551 ft 406 kts 43°
2026-04-30 09:51 28.71832 -15.34238 33886 ft 408 kts 43°
2026-04-30 09:51 28.73524 -15.31645 34208 ft 409 kts 42°
2026-04-30 09:52 28.75229 -15.29032 34460 ft 412 kts 43°
2026-04-30 09:52 28.76944 -15.26402 34730 ft 415 kts 43°
2026-04-30 09:52 28.78666 -15.23758 35013 ft 416 kts 43°
2026-04-30 09:52 28.80394 -15.21104 35285 ft 418 kts 43°
2026-04-30 09:53 28.82133 -15.18432 35518 ft 421 kts 43°
2026-04-30 09:53 28.83881 -15.15744 35759 ft 423 kts 43°
2026-04-30 09:53 28.85638 -15.13040 36015 ft 425 kts 43°
2026-04-30 09:53 28.87404 -15.10320 36114 ft 429 kts 43°
2026-04-30 09:54 28.91007 -15.04766 36122 ft 442 kts 44°